Location: Seattle
(47.6060°N, 122.3310°W)
Time: 08:09:54
(UTC-07:00)

ISS - Visible Passes

Search period start: 18 April 2015 00:00
Search period end: 28 April 2015 00:00
Orbit: 396 x 403 km, 51.6° (Epoch: 18 April)

Date Brightness Start Highest point End Pass type
(mag) Time Alt. Az. Time Alt. Az. Time Alt. Az.
18 Apr -2.5 21:25:55 10° WNW 21:29:01 39° SW 21:30:30 24° SSE visible
19 Apr -3.1 20:31:56 10° WNW 20:35:10 67° SSW 20:38:25 10° SE visible
19 Apr -0.8 22:09:37 10° WSW 22:11:04 12° SW 22:11:21 12° SW visible
20 Apr -1.4 21:14:45 10° W 21:17:19 21° SW 21:19:40 11° S visible
22 Apr -0.5 21:04:16 10° WSW 21:05:20 11° SW 21:06:18 10° SSW visible
